Regional Weather Roundup
Issued by NWS

Home | Current Version | Previous Version | Graphics & Text | Print | Product List | Glossary Off
Versions: 1 2 3 4 5 6 7 8 9 10 11 12 13 14 15 16 17 18 19 20 21 22 23 24 25 26 27

000
ASUS45 KSLC 280110
RWRUT

UTAH REGIONAL WEATHER ROUNDUP
NATIONAL WEATHER SERVICE SALT LAKE CITY UT
700 PM MDT THU JUL 27 2017

UTZ001>011-023>025-280200-

NORTHERN UTAH

CITY           SKY/WX    TMP DP  RH WIND       PRES   REMARKS
BRIGHAM CITY   SUNNY     86  46  24 N8        30.08S
HILL AFB       SUNNY     86  40  20 CALM      30.10F
LOGAN          MOSUNNY   80  56  43 NW12      30.11F
OGDEN          SUNNY     88  44  21 NW6       30.06F
SALT LAKE CITY MOSUNNY   90  49  24 VRB3      30.04F
TOOELE VALLEY  SUNNY     88  52  29 N9        30.06S
WENDOVER       MOSUNNY   90  50  25 S10       30.04F
HEBER CITY     MOSUNNY   82  45  26 N8        30.13F
WEST JORDAN    SUNNY     86  60  41 NW5       30.09S

$$

UTZ011>015-024>027-280200-

CENTRAL/NORTHEAST UTAH

CITY           SKY/WX    TMP DP  RH WIND       PRES   REMARKS
PROVO AIRPORT  SUNNY     87  60  40 W7        30.06F
MOAB/CANYONLAN SUNNY     94  48  20 NW6       29.97F HX  90
DELTA          SUNNY     90  41  18 NW6       30.06S
PRICE          SUNNY     88  46  23 VRB5      30.12F
RICHFIELD      SUNNY     86  54  32 NE7       30.10S
ROOSEVELT      CLOUDY    90  45  20 S3        30.08F
VERNAL         CLOUDY    89  50  26 N8        30.07F

$$

UTZ013>016-019>022-027-280200-

SOUTHERN UTAH

CITY           SKY/WX    TMP DP  RH WIND       PRES   REMARKS
BRYCE CANYON   MOSUNNY   79  49  34 NW6       30.29F
CEDAR CITY     SUNNY     86  50  28 CALM      30.12F
MILFORD        MOSUNNY   94  47  20 NE8       30.04F HX  90
ST GEORGE      PTCLDY    99  53  21 W12       29.89F HX  96
HANKSVILLE     MOSUNNY   93  45  18 NW10      30.01S
KANAB          SUNNY     90  45  20 W6        30.09F
BLANDING       PTSUNNY   91  47  22 CALM      30.17S

$$

REGIONAL REPORTS     COLORADO/ARIZONA

CITY           SKY/WX    TMP DP  RH WIND       PRES   REMARKS
CRAIG, CO      SUNNY     85  45  24 NE3       30.17F
GRAND JUNCTION SUNNY     94  46  19 W9        30.00F HX  90
RIFLE, CO      MOSUNNY   89  50  26 NW8       30.07F
MONTROSE, CO   CLOUDY    88  49  25 NW12      30.11S
CORTEZ, CO     CLOUDY    83  49  30 NE9       30.13R
COLORADO CITY    N/A     91  52  25 W8        30.10S
PAGE, AZ       CLOUDY    93  54  26 S8        29.99F HX  91
GRAND CANYON   PTSUNNY   74  57  55 E6        30.25R
KINGMAN, AZ    MOSUNNY   98  50  19 NW6       29.96S HX  95
FLAGSTAFF, AZ  CLOUDY    61  57  87 CALM      30.30F

$$

REGIONAL REPORTS    NEVADA/IDAHO/WYOMING

CITY           SKY/WX    TMP DP  RH WIND       PRES   REMARKS
LAS VEGAS, NV  MOSUNNY  103  52  18 NE7       29.82F HX 100
ELY, NY        PTSUNNY   77  43  29 NW9       30.21F
ELKO, NV       SUNNY     89  34  14 W15       30.10F
POCATELLO, ID  SUNNY     79  54  41 N16G26    30.12S
BURLEY, ID     MOSUNNY   83  48  29 W6        30.07F
FORT BRIDGER,    N/A     81  34  18 W18G28    30.29S
EVANSTON, WY   SUNNY     77  35  21 W14       30.28F
ROCK SPRINGS,  SUNNY     83  33  16 W21G28    30.20S
KEMMERER, WY     N/A     70  43  37 NW28G37   30.29S

$$




USA.gov is the U.S. government's official web portal to all federal, state and local government web resources and services.